User: anonymous   Login
Location: Caltech
(34.1382°N, 118.1253°W)
Time: 08:37:00
(UTC-08:00)
Language:

Cosmos 1408 Rocket - Orbit

View from above orbital plane
View from above orbital plane
View from above satellite
View from above satellite

Ground track
Ground track

The orbit data is extracted from the following two-line orbital elements,

1 13553U 82092B   16340.37709668  .00000105  00000-0  96836-5 0  9991
2 13553  82.5704  54.6530 0020551 328.8772  82.7018 14.84095151848293
Epoch (UTC): 05 December 2016 09:03:01
Eccentricity: 0.0020551
inclination: 82.5704°
perigee height: 602 km
apogee height: 631 km
right ascension of ascending node: 54.6530°
argument of perigee: 328.8772°
revolutions per day: 14.84095151
mean anomaly at epoch: 82.7018°
orbit number at epoch: 84829

The dashed part of the orbit path shows where the satellite is in the earth's shadow,  

DLR